YAOGAN-43 02F (60950 NORAD) Tracking and Keplerian Element Data

This shows tracking and keplerian element data for the satellite.

Feedback or suggestion? Click here.




ElementValue
Catalog60950
NameYAOGAN-43 02F
Epoch Orbit603
Epoch Day286.86883786
Epoch Year2024
RAAN89.0663
Inclination34.9932
Eccentricity0.0005774
Argument of Perigee341.934
Mean Anonmoly18.1169
Mean Motion15.23545425
Decay Rate0.00023306
L11 60950U 24156F 24286.86883786 .00023306 00000+0 95002-3 0 9996
L22 60950 34.9932 89.0663 0005774 341.9340 18.1169 15.23545425 6032



Live tracking and technical data element details for YAOGAN-43 02F (NORAD 60950). YAOGAN-43 02F can be tracked NOW for your location showing map with azimuth and elevation plus other details from your city location.







IsCatalogInMostPopularTable: catalog: 60950, numindb: 6
Update: records affected: 1



GetName: 60950 YAOGAN-43 02F

Hit Count: updated at: Wed, 04 Dec 2024 18:06:03 GMT